Location: Bonningues
(50.7927°N, 2.0150°E)
Time: 16:59:24
(UTC+00:00)

Cosmos 1812 - Pass Details

Date: 08 August 2020
Orbit: 517 x 520 km, 82.5° (Epoch: 25 September)

Event Time Altitude Azimuth Distance (km) Brightness Sun altitude
Rises 20:50:30 0° 342° (NNW) 2,655 7.5 -11.9°
Reaches altitude 10° 20:52:45 10° 334° (NNW) 1,761 6.7 -12.1°
Maximum altitude 20:56:17 35° 268° (W) 853 4.2 -12.5°
Drops below altitude 10° 20:59:47 10° 202° (SSW) 1,746 5.1 -12.9°
Enters shadow 21:01:07 - 196° (SSW) 2,265 5.7 -13.0°
